カタログに戻る

ARIANE 44L DEB

LostHEO
NORAD 32998·DEBRIS·🇫🇷 France

打ち上げ Oct 29, 1991 から Guiana Space Centre

Loading…

次のパス (今後24時間)

TLE

古いSource: Space-Track

元期: May 30, 2026, 06:26 UTC

1 32998U 91075P   26150.26842109 -.00000179  00000-0 -13569-2 0  9994
2 32998   5.5496  97.9865 6630924 213.3754 329.6069  2.88452142245126

AllMySatでARIANE 44L DEBをリアルタイム追跡

Download on the App Store